Miscellaneous Local Product
Issued by NWS Hastings, NE

Home | Current Version | Previous Version | Text Only | Print | Product List | Glossary On
Versions: 1 2 3 4 5 6 7 8 9 10 11 12 13 14 15 16 17 18 19 20 21 22 23 24 25 26 27 28 29 30 31 32 33 34 35 36 37 38 39 40 41 42 43 44 45 46 47 48 49 50
000
AXUS43 KGID 250802
MISGRI

GID CWA HOURLY WEATHER ROUNDUP
NATIONAL WEATHER SERVICE HASTINGS NE
200 AM CST SUN FEB 25 2018

NOTE: "FAIR" INDICATES FEW OR NO CLOUDS BELOW 12,000 FEET WITH NO
SIGNIFICANT WEATHER AND/OR OBSTRUCTIONS TO VISIBILITY.

...SOUTH CENTRAL NEBRASKA...

CITY           SKY/WX    TMP DP  RH WIND       PRES   REMARKS
GRAND ISLAND   CLEAR     22  14  71 W10       29.87S WCI  11
KEARNEY        CLEAR     22  15  75 SW12      29.89R WCI  10
HASTINGS       CLEAR     21  13  71 W8        29.89R WCI  11
ORD            CLEAR     20  11  68 NW8       29.83S WCI  10
YORK           CLEAR     19  16  86 W9        29.88R WCI   9
AURORA         CLEAR     20  14  76 W12       29.86S WCI   8
LEXINGTON      CLEAR     19  14  82 W5        29.89R WCI  12
HOLDREGE       CLEAR     25  16  69 W10       29.89S WCI  14
HEBRON         CLEAR     23  17  78 W3        29.92R

...NEBRASKA PANHANDLE...

CITY           SKY/WX    TMP DP  RH WIND       PRES   REMARKS
CHADRON        CLOUDY     8   2  76 SW3       29.80R
ALLIANCE       CLOUDY    21  12  68 W15       29.79R WCI   8
SCOTTSBLUFF    CLOUDY    26  14  60 NW8       29.82R WCI  18
SIDNEY         CLOUDY    27  10  49 W15       29.83S WCI  15

...WESTERN AND NORTH CENTRAL NEBRASKA...

CITY           SKY/WX    TMP DP  RH WIND       PRES   REMARKS
VALENTINE      CLEAR     16   7  67 W13       29.77R WCI   2
AINSWORTH      CLEAR     20  11  69 W14       29.78R WCI   6
ONEILL         CLEAR     18  11  73 SW13      29.79R WCI   5
BROKEN BOW     CLEAR     13   4  67 W9        29.82F WCI   1
IMPERIAL       MOCLDY    24  16  71 SW7       29.86F WCI  16
NORTH PLATTE   CLEAR      8   4  83 NW3       29.86S
MCCOOK         PTCLDY    24  15  68 W8        29.91R WCI  15

...EASTERN NEBRASKA...

CITY           SKY/WX    TMP DP  RH WIND       PRES   REMARKS
NORFOLK        CLEAR     20  12  71 W10       29.81R WCI   9
SO SIOUX CITY  CLEAR     16  10  77 SW5       29.80S WCI   9
TEKAMAH        CLEAR     14  10  84 SW7       29.85R WCI   4
COLUMBUS       CLEAR     19  13  77 W9        29.86R WCI   8
ALBION         CLEAR     20  12  71 NW9       29.83F WCI  10
OMAHA EPPLEY   CLEAR     25  16  68 W7        29.87R WCI  17
OFFUTT AFB     CLEAR     24  17  74 W8        29.87R WCI  16
MILLARD        CLEAR     28  18  66 W10       29.86S WCI  18
LINCOLN        CLEAR     23  16  74 CALM      29.89F
NEBRASKA CITY  CLEAR     27  22  82 W9        29.89R WCI  17
BEATRICE       CLEAR     23  19  83 SW6       29.92R WCI  16
FALLS CITY     CLEAR     28  20  71 W10       29.93R WCI  19

...NORTHERN KANSAS...

CITY           SKY/WX    TMP DP  RH WIND       PRES   REMARKS
GOODLAND       PTCLDY    19  11  70 SW9       29.90F WCI   8
HILL CITY      CLOUDY    20  13  74 W6        29.97R WCI  12
NORTON         SUNNY     19  10  68 W7        29.91S WCI  10
PHILLIPSBURG   CLEAR     21  14  73 CALM      29.94S
BELOIT         CLEAR     21  16  79 CALM      29.96R
HAYS           CLEAR     20  12  71 W8        29.99R WCI  10
RUSSELL        CLEAR     20  13  74 SW6       29.98R WCI  12
CONCORDIA      CLEAR     25  17  72 SW8       29.95R WCI  16
SALINA         CLEAR     28  20  71 SW10      30.01R WCI  19
TOPEKA         CLEAR     32  26  78 W6        29.98S WCI  26



USA.gov is the U.S. government's official web portal to all federal, state and local government web resources and services.